[[{"header":{"parameterUnit":"m.s-1","parameterCategory":1,"la1":30.2991,"la2":30.254,"lo1":-89.0895,"lo2":-89.0444,"dy":0.0017,"dx":0.0017,"nx":28,"ny":28,"refTime":"2023-09-21T09:00:00:Z","depth":0,"parameterNumber":2,"parameterNumberName":"U-component_of_WINDS"},"data":[0,0,0,0,0,0,0,0,0,0,0,0,0,0,0,0,0,0,0,0,0,0,0,0,0,0,0,0,0,0,0,0,0,0,0,0,0,0,0,0,0,0,0,0,0,0,0,0,0,0,0,0,0,0,0,0,0,0,-2.7288,-2.729,0,-2.7396,-2.7397,-2.7398,-2.7341,-2.7338,-2.7335,-2.7332,-2.7445,-2.745,-2.7456,0,0,0,0,0,0,0,0,0,0,0,0,0,-2.7034,-2.7039,-2.7288,-2.729,-2.7291,-2.7396,-2.7397,-2.7399,-2.7341,-2.7338,-2.7334,-2.7331,-2.7443,-2.7449,-2.7456,0,0,0,0,0,0,0,0,0,0,0,0,0,-2.7143,-2.704,-2.7288,-2.7275,-2.7275,-2.7395,-2.7397,-2.7399,-2.7342,-2.7338,-2.7333,-2.7329,-2.7441,-2.7449,-2.7457,-2.7597,0,0,-2.7483,-2.7487,0,0,0,0,0,0,0,0,-2.7137,-2.7153,-2.7276,-2.7276,-2.7276,-2.735,-2.7348,-2.7466,-2.7343,-2.7317,-2.7332,-2.7327,-2.7417,-2.7427,-2.7457,-2.7602,-2.7607,-2.7484,-2.7489,-2.7493,-2.7495,0,0,0,0,0,0,0,-2.713,-2.7148,-2.7331,-2.7278,-2.7278,-2.7264,-2.7275,-2.737,-2.739,-2.7319,-2.7315,-2.7328,-2.7416,-2.7449,-2.7459,-2.7609,-2.7484,-2.7491,-2.7497,-2.75,-2.7871,-2.7876,0,0,0,0,0,0,-2.7123,-2.7142,-2.7327,-2.7334,-2.7194,-2.7272,-2.7284,-2.7331,-2.7389,-2.7393,-2.7332,-2.7325,-2.7436,-2.7449,-2.7463,-2.7628,-2.7493,-2.7501,-2.7506,-2.7867,-2.7872,-2.7877,0,0,0,0,0,0,-2.7117,-2.714,-2.7323,-2.7237,-2.7259,-2.7281,-2.7334,-2.7336,-2.7368,-2.7399,-2.7402,-2.7361,-2.7433,-2.7451,-2.7563,-2.7631,-2.7505,-2.7513,-2.7861,-2.7868,-2.7875,-2.7961,0,0,0,0,0,0,-2.711,-2.7138,-2.7192,-2.7239,-2.7264,-2.7422,-2.7339,-2.7341,-2.7383,-2.7375,-2.7427,-2.7432,-2.7431,-2.7551,-2.7572,-2.7641,-2.7519,-2.7855,-2.7864,-2.7873,-2.7952,-2.797,-2.7985,0,0,0,0,0,-2.7101,-2.7213,-2.7195,-2.7218,-2.7331,-2.7426,-2.7441,-2.7437,-2.7388,-2.7442,-2.7461,-2.743,-2.7621,-2.7563,-2.7586,-2.7658,-2.7851,-2.7862,-2.7872,-2.7944,-2.7966,-2.7985,0,0,0,0,0,0,-2.7175,-2.7219,-2.7199,-2.7329,-2.7374,-2.7416,-2.7484,-2.7461,-2.7521,-2.7512,-2.7505,-2.7518,-2.7634,-2.7658,-2.7593,-2.7795,-2.7728,-2.7744,-2.7775,-2.7796,-2.7813,-2.7804,-2.7526,0,0,0,0,0,-2.7206,-2.7279,-2.7314,-2.7425,-2.7448,-2.7462,-2.7504,-2.7497,-2.7543,-2.7562,-2.759,-2.7637,-2.7707,-2.7753,-2.782,-2.7955,-2.7965,-2.8016,-2.8033,-2.8047,-2.806,-2.813,-2.8153,-2.7912,-2.7912,-2.7912,0,0,-2.7272,-2.7304,-2.7351,-2.744,-2.7474,-2.7549,-2.7479,-2.7562,-2.7617,-2.7575,-2.7682,-2.7704,-2.7756,-2.788,-2.7936,-2.7903,-2.8128,-2.806,-2.8071,-2.8077,-2.8144,-2.8166,-2.8187,-2.792,-2.7918,-2.7917,0,0,-2.7428,-2.7462,-2.7556,-2.7591,-2.7643,-2.7651,-2.7674,-2.7719,-2.7732,-2.7839,-2.7807,-2.7874,-2.7995,-2.8032,-2.8067,-2.8236,-2.8208,-2.8258,-2.8344,-2.8413,-2.8432,-2.8449,-2.8506,-2.8527,-2.8271,-2.8271,-2.8271,0,-2.7503,-2.7615,-2.7608,-2.7693,-2.7732,-2.7696,-2.7791,-2.7826,-2.7897,-2.7925,-2.7887,-2.8036,-2.8069,-2.82,-2.824,-2.8271,-2.8295,-2.8251,-2.843,-2.8446,-2.8462,-2.8517,-2.8539,-2.8277,-2.8276,-2.8276,-2.8275,0,-2.7703,-2.778,-2.7851,-2.7918,-2.7966,-2.8056,-2.8062,-2.8111,-2.81,-2.8112,-2.822,-2.8257,-2.8329,-2.836,-2.8351,-2.8489,-2.8466,-2.843,-2.8362,-2.849,-2.8541,-2.8563,-2.8285,-2.8283,-2.8281,-2.828,0,0,-2.7909,-2.797,-2.7996,-2.8025,-2.8078,-2.8138,-2.8226,-2.8295,-2.8336,-2.8386,-2.8458,-2.856,-2.8525,-2.8565,-2.856,-2.8621,-2.8748,-2.8576,-2.8577,-2.8604,-2.8899,-2.8925,-2.8949,-2.8731,-2.8735,-2.8738,-2.8894,0,-2.8067,-2.8219,-2.8215,-2.8356,-2.8426,-2.8392,-2.8468,-2.8508,-2.8522,-2.8583,-2.8598,-2.867,-2.862,-2.8643,-2.8702,-2.872,-2.8807,-2.8709,-2.8796,-2.88,-2.8782,-2.8976,-2.9004,-2.915,-2.8914,-2.8918,-2.892,0,-2.8272,-2.8327,-2.8474,-2.8515,-2.8544,-2.8612,-2.8673,-2.8734,-2.8779,-2.8784,-2.8827,-2.8811,-2.8899,-2.8829,-2.8949,-2.8883,-2.8918,-2.8933,-2.8938,-2.8944,-2.8866,-2.8986,-2.9196,-2.9217,-2.8952,-2.895,-2.8947,0,-2.8404,-2.8515,-2.8617,-2.8643,-2.8694,-2.8742,-2.8765,-2.8806,-2.8847,-2.8901,-2.8927,-2.8991,-2.9026,-2.9076,-2.9078,-2.9027,-2.9198,-2.9129,-2.9203,-2.9203,-2.9239,-2.9237,-2.9456,-2.9267,-2.9266,-2.9266,-2.9265,0,-2.858,-2.8671,-2.8676,-2.8739,-2.8839,-2.8833,-2.8933,-2.8951,-2.8988,-2.9052,-2.9028,-2.909,-2.9089,-2.9152,-2.9154,-2.9251,-2.9268,-2.9273,-2.9272,-2.9274,-2.9273,-2.9296,-2.9285,-2.9272,-2.927,-2.9269,-2.9268,0,-2.8744,-2.8752,-2.886,-2.8898,-2.8909,-2.8981,-2.9014,-2.9073,-2.9083,-2.9166,-2.9185,-2.9201,-2.9273,-2.928,-2.9365,-2.9366,-2.9482,-2.9472,-2.9467,-2.9464,-2.9536,-2.9528,-2.9776,-2.9807,-2.96,-2.9602,-2.9604,0,-2.8855,-2.8923,-2.8968,-2.9009,-2.9034,-2.9102,-2.9142,-2.9139,-2.9183,-2.9238,-2.9289,-2.9359,-2.9414,-2.953,-2.955,-2.9614,-2.9603,-2.9685,-2.9613,-2.9611,-2.9601,-2.9596,-2.9601,-2.9699,-2.9701,-2.9703,-2.9705,0,-2.9049,-2.9048,-2.9108,-2.9168,-2.9217,-2.9265,-2.9309,-2.9345,-2.9347,-2.9397,-2.9469,-2.9512,-2.9596,-2.9665,-2.9727,-2.9751,-2.9728,-2.9728,-2.9747,-2.9749,-2.9741,-2.9743,-2.9502,-2.9722,-2.972,-2.9719,-2.9718,-2.9717,-2.9188,-2.9246,-2.9285,-2.9352,-2.9384,-2.9426,-2.9482,-2.9499,-2.9559,-2.9626,-2.9621,-2.9701,-2.9742,-2.9822,-2.9851,-2.9913,-2.9885,-2.9915,-2.9922,-2.9929,-2.9934,-2.9734,-2.9925,-2.9924,-2.9924,-2.9923,-2.9923,0,-2.9378,-2.9401,-2.9462,-2.9524,-2.9576,-2.9549,-2.9596,-2.9641,-2.9711,-2.9751,-2.9805,-2.9887,-2.9953,-2.9977,-3.0041,-3.0086,-3.0076,-3.0102,-3.0098,-3.0103,-2.9957,-2.9932,-3.0108,-3.0108,-3.0108,-3.0108,-3.0108,-3.0108,-2.9483,-2.9578,-2.9583,-2.9694,-2.9717,-2.9793,-2.9822,-2.986,-2.9892,-2.9984,-3.0037,-3.0053,-3.0086,-3.0152,-3.021,-3.0216,-3.0239,-3.0269,-3.027,-3.0132,-3.0114,-3.0096,-3.0072,-3.0275,-3.0275,-3.041,-3.0411,-3.0412]},{"header":{"parameterUnit":"m.s-1","parameterCategory":1,"la1":30.2991,"la2":30.254,"lo1":-89.0895,"lo2":-89.0444,"dy":0.0017,"dx":0.0017,"nx":28,"ny":28,"refTime":"2023-09-21T09:00:00:Z","depth":0,"parameterNumber":3,"parameterNumberName":"V-component_of_WINDS"},"data":[0,0,0,0,0,0,0,0,0,0,0,0,0,0,0,0,0,0,0,0,0,0,0,0,0,0,0,0,0,0,0,0,0,0,0,0,0,0,0,0,0,0,0,0,0,0,0,0,0,0,0,0,0,0,0,0,0,0,-1.7794,-1.7796,0,-1.796,-1.7961,-1.7963,-1.8025,-1.8024,-1.8024,-1.8023,-1.8191,-1.8196,-1.82,0,0,0,0,0,0,0,0,0,0,0,0,0,-1.753,-1.7534,-1.7794,-1.7796,-1.7798,-1.7959,-1.7962,-1.7964,-1.8025,-1.8024,-1.8024,-1.8023,-1.8189,-1.8195,-1.8201,0,0,0,0,0,0,0,0,0,0,0,0,0,-1.7665,-1.7536,-1.7794,-1.7848,-1.7855,-1.7959,-1.7962,-1.7964,-1.8025,-1.8024,-1.8023,-1.8023,-1.8187,-1.8194,-1.8202,-1.8263,0,0,-1.8224,-1.8228,0,0,0,0,0,0,0,0,-1.7657,-1.7674,-1.7838,-1.7845,-1.7852,-1.7971,-1.793,-1.8065,-1.8025,-1.796,-1.8023,-1.8022,-1.8118,-1.8131,-1.8164,-1.8271,-1.8278,-1.8225,-1.823,-1.8233,-1.8235,0,0,0,0,0,0,0,-1.7648,-1.7668,-1.786,-1.784,-1.7849,-1.7864,-1.7882,-1.7956,-1.8041,-1.7966,-1.7971,-1.799,-1.8122,-1.8157,-1.8168,-1.8281,-1.8225,-1.8231,-1.8236,-1.8239,-1.8447,-1.8448,0,0,0,0,0,0,-1.7629,-1.7659,-1.7854,-1.7864,-1.7751,-1.7869,-1.789,-1.7933,-1.8041,-1.8057,-1.799,-1.7992,-1.8144,-1.8159,-1.8174,-1.8254,-1.8233,-1.824,-1.8244,-1.8446,-1.8448,-1.8449,0,0,0,0,0,0,-1.7624,-1.7646,-1.7848,-1.7763,-1.779,-1.7875,-1.7923,-1.7937,-1.7972,-1.8059,-1.8075,-1.801,-1.8144,-1.8164,-1.8241,-1.826,-1.8243,-1.825,-1.8445,-1.8447,-1.8448,-1.8413,0,0,0,0,0,0,-1.7616,-1.7644,-1.7668,-1.7764,-1.7794,-1.7912,-1.7924,-1.7941,-1.7985,-1.7989,-1.8082,-1.8097,-1.8145,-1.823,-1.8248,-1.827,-1.8256,-1.8444,-1.8446,-1.8448,-1.8412,-1.8413,-1.8413,0,0,0,0,0,-1.7606,-1.7651,-1.7669,-1.7692,-1.7827,-1.7913,-1.793,-1.7986,-1.7986,-1.8011,-1.8067,-1.8094,-1.8255,-1.8237,-1.8259,-1.8283,-1.8443,-1.8445,-1.8448,-1.8412,-1.8413,-1.8413,0,0,0,0,0,0,-1.7555,-1.7665,-1.7686,-1.7763,-1.7828,-1.7923,-1.7956,-1.7984,-1.805,-1.8051,-1.8117,-1.8137,-1.8209,-1.8254,-1.8231,-1.8349,-1.8351,-1.8358,-1.8316,-1.8318,-1.8318,-1.8305,-1.8262,0,0,0,0,0,-1.7553,-1.7614,-1.7706,-1.7765,-1.7797,-1.7871,-1.791,-1.7948,-1.8017,-1.8045,-1.8107,-1.8173,-1.8239,-1.8281,-1.8346,-1.8419,-1.8441,-1.8447,-1.8447,-1.8447,-1.8452,-1.8494,-1.8498,-1.8457,-1.8457,-1.8457,0,0,-1.7549,-1.7616,-1.7651,-1.7757,-1.7812,-1.7873,-1.7894,-1.7957,-1.8004,-1.8055,-1.8131,-1.8179,-1.8257,-1.8333,-1.8369,-1.8372,-1.8468,-1.845,-1.8449,-1.8455,-1.8497,-1.8501,-1.8504,-1.8458,-1.8458,-1.8458,0,0,-1.7573,-1.763,-1.7686,-1.7741,-1.7824,-1.7873,-1.7886,-1.7977,-1.8011,-1.8089,-1.8129,-1.8184,-1.8296,-1.835,-1.8393,-1.8438,-1.8464,-1.8457,-1.8459,-1.8499,-1.8503,-1.8506,-1.8522,-1.8527,-1.8462,-1.8462,-1.8462,0,-1.7557,-1.7652,-1.7711,-1.7773,-1.7819,-1.7868,-1.7925,-1.7975,-1.8075,-1.8105,-1.8108,-1.825,-1.8306,-1.8395,-1.8406,-1.8439,-1.8456,-1.8447,-1.8498,-1.8501,-1.8505,-1.8521,-1.8527,-1.8461,-1.8461,-1.8461,-1.8461,0,-1.7628,-1.7693,-1.7728,-1.7824,-1.7874,-1.7933,-1.8001,-1.8044,-1.8077,-1.8125,-1.8204,-1.8274,-1.8354,-1.8378,-1.8411,-1.8472,-1.8471,-1.8485,-1.8488,-1.8507,-1.8523,-1.853,-1.8459,-1.8459,-1.846,-1.846,0,0,-1.7624,-1.7753,-1.7764,-1.7809,-1.7904,-1.7955,-1.8017,-1.8096,-1.8132,-1.8199,-1.8252,-1.8346,-1.836,-1.8407,-1.8447,-1.8482,-1.8514,-1.8492,-1.8495,-1.8493,-1.8585,-1.8574,-1.8581,-1.8532,-1.8534,-1.8535,-1.8579,0,-1.766,-1.7773,-1.7828,-1.7916,-1.7977,-1.8026,-1.8079,-1.8143,-1.8191,-1.8249,-1.8301,-1.8366,-1.8379,-1.8408,-1.8446,-1.8502,-1.8533,-1.85,-1.8582,-1.8584,-1.856,-1.8589,-1.8578,-1.8616,-1.8586,-1.8587,-1.8588,0,-1.7718,-1.7785,-1.788,-1.7969,-1.7996,-1.8044,-1.8121,-1.8176,-1.825,-1.8282,-1.8336,-1.8374,-1.844,-1.8439,-1.8531,-1.8507,-1.8544,-1.8577,-1.858,-1.8589,-1.8586,-1.8599,-1.8629,-1.8635,-1.8598,-1.8597,-1.8596,0,-1.7705,-1.782,-1.7891,-1.7928,-1.8033,-1.8065,-1.8111,-1.8184,-1.8228,-1.8296,-1.8326,-1.84,-1.844,-1.8496,-1.8554,-1.8548,-1.864,-1.8644,-1.8668,-1.8667,-1.8685,-1.8683,-1.8721,-1.8709,-1.8709,-1.8709,-1.8709,0,-1.774,-1.7795,-1.7887,-1.7931,-1.7995,-1.8058,-1.8119,-1.8169,-1.8233,-1.8287,-1.8334,-1.8383,-1.8456,-1.8515,-1.856,-1.863,-1.8648,-1.8675,-1.8686,-1.8671,-1.8667,-1.8696,-1.8694,-1.8711,-1.871,-1.871,-1.871,0,-1.7736,-1.78,-1.7881,-1.7974,-1.7999,-1.8042,-1.8122,-1.8167,-1.8217,-1.8284,-1.8304,-1.8382,-1.8453,-1.8516,-1.8611,-1.8641,-1.8712,-1.8726,-1.8687,-1.8694,-1.8714,-1.8711,-1.8772,-1.8783,-1.8763,-1.8763,-1.8763,0,-1.7753,-1.7798,-1.7897,-1.7936,-1.7981,-1.8045,-1.8091,-1.8155,-1.82,-1.8288,-1.8322,-1.8397,-1.8461,-1.8573,-1.8637,-1.871,-1.8726,-1.8742,-1.8737,-1.872,-1.8726,-1.8723,-1.8727,-1.8742,-1.8742,-1.8742,-1.8742,0,-1.7778,-1.7808,-1.7872,-1.7948,-1.8002,-1.8064,-1.8128,-1.8158,-1.8234,-1.8283,-1.8357,-1.8406,-1.8503,-1.8577,-1.8657,-1.8704,-1.8735,-1.8743,-1.8752,-1.8737,-1.8712,-1.8726,-1.8687,-1.8741,-1.8741,-1.8741,-1.8741,-1.8741,-1.7786,-1.7828,-1.7904,-1.7974,-1.8029,-1.8088,-1.8134,-1.819,-1.8254,-1.8338,-1.8372,-1.8447,-1.8521,-1.8631,-1.8678,-1.8738,-1.8743,-1.8757,-1.876,-1.8762,-1.876,-1.8703,-1.8752,-1.8752,-1.8753,-1.8753,-1.8753,0,-1.7813,-1.7865,-1.7929,-1.8017,-1.8073,-1.8098,-1.8171,-1.8215,-1.8281,-1.8347,-1.8409,-1.8494,-1.8566,-1.8637,-1.8713,-1.8747,-1.8763,-1.8765,-1.8763,-1.8773,-1.8751,-1.8735,-1.875,-1.875,-1.875,-1.875,-1.875,-1.875,-1.7834,-1.7906,-1.7944,-1.8044,-1.8095,-1.817,-1.8209,-1.8263,-1.8317,-1.841,-1.847,-1.8516,-1.8584,-1.8666,-1.8733,-1.8752,-1.8777,-1.8775,-1.8797,-1.8775,-1.8774,-1.8774,-1.8759,-1.878,-1.878,-1.8815,-1.8815,-1.8816]}]]